Overview Statistics Trail Chart Weather Telemetry Raw packets
 

This is the latest recevied weather packets stored in our database for station/object 9A7DI-13. If no packets are shown the sender has not sent any weather packets the latest 10 day(s).

<< 49 50 51 52 53 54 55 >>
Time Temp. Humidity Pressure Rain* Wind** Luminosity Snow
1787904415 27.78° C 41% 1025.2 hPa - - - -
1787903815 27.22° C 43% 1025.3 hPa - - - -
1787903215 27.22° C 44% 1025.2 hPa - - - -
1787902614 26.67° C 46% 1025.3 hPa - - - -
1787902015 25.56° C 46% 1025.3 hPa - - - -
1787901415 25.56° C 46% 1025.3 hPa - - - -
1787900815 25° C 48% 1025.3 hPa - - - -
1787900215 24.44° C 51% 1025.3 hPa - - - -
1787899615 23.89° C 54% 1025.3 hPa - - - -
1787899015 23.33° C 57% 1025.2 hPa - - - -
1787898414 22.22° C 60% 1025.1 hPa - - - -
1787897815 21.67° C 63% 1025.1 hPa - - - -
1787897215 21.11° C 67% 1025.1 hPa - - - -
1787896615 20.56° C 71% 1025 hPa - - - -
1787896015 20.56° C 77% 1025 hPa - - - -
1787895415 20° C 80% 1024.9 hPa - - - -
1787894815 19.44° C 80% 1024.8 hPa - - - -
1787894215 18.89° C 84% 1024.8 hPa - - - -
1787893615 18.33° C 89% 1024.9 hPa - - - -
1787893015 18.33° C 89% 1025 hPa - - - -
1787892415 17.78° C 88% 1024.9 hPa - - - -
1787891815 17.78° C 88% 1025 hPa - - - -
1787891215 18.33° C 88% 1025 hPa - - - -
1787890615 18.33° C 86% 1025.3 hPa - - - -
1787890015 18.33° C 86% 1025 hPa - - - -

* Rain since midnight (hover to see other rain measurements)
** Current wind speed in m/s (hover to see current wind gust speed)